Location: Sardara
(39.6144°N, 8.8217°E)
Time: 22:05:49
(UTC+00:00)

Daily predictions for brighter satellites

Satellite Brightness Start Highest point End
(mag) Time Altitude Azimuth Time Altitude Azimuth Time Altitude Azimuth
USA 267 3.9 16:48:02 10° E 16:53:53 36° NNE 16:59:44 10° NW
Cosmos 1544 Rocket 3.6 16:49:48 10° S 16:54:13 71° E 16:58:41 10° NNE
Cosmos 1328 3.8 16:53:14 10° N 16:57:18 77° E 17:01:19 10° S
FALCON 9 DEB 3.1 16:54:06 10° SW 16:57:30 81° SE 17:00:56 10° NE
NOSS 2 (A) 4.5 16:55:20 10° NW 16:57:53 64° WSW 17:00:14 10° SSE
Cosmos 1605 Rocket 4.3 16:52:13 10° SSE 16:58:10 47° E 17:04:13 10° NNE
COSMOS 2428 4.2 16:55:13 10° SE 16:58:30 16° E 17:01:49 10° ENE
Delta 2 Rocket 4.2 16:56:38 10° W 17:00:17 38° S 17:03:35 10° ESE
SL-16 R/B 2.8 16:54:41 10° SW 17:00:17 63° WNW 17:05:56 10° NNE
deb Chang Zheng 4 3.9 16:56:59 10° SE 17:00:55 40° ENE 17:04:53 10° N
NOAA 6 4.3 16:57:16 10° S 17:02:26 78° WSW 17:07:39 10° NNW
FALCON 9 DEB 2.9 17:00:17 10° SW 17:03:14 72° NW 17:06:11 10° NE
Cosmos 332 Rocket 4.0 17:02:09 10° SSW 17:07:02 76° WNW 17:11:55 10° NNE
NOSS 3-1 (C) 4.3 17:02:32 10° WSW 17:07:30 43° NW 17:13:17 10° NNE
Cosmos 2322 Rocket 2.5 17:04:00 10° SSW 17:09:34 70° WNW 17:15:12 10° NNE
Cosmos 2219 Rocket 3.1 17:06:16 10° SSE 17:10:51 27° ESE 17:15:26 10° NE
ARGOS 3.8 17:06:17 10° SE 17:11:05 34° ENE 17:15:55 10° N
BREEZE M DEB (TANK) 4.5 17:07:12 10° WNW 17:11:44 89° NNE 17:44:34 10° ESE
H-2A R/B 2.2 17:10:07 10° SSE 17:15:27 61° ENE 17:20:50 10° N
SMAP 3.9 17:11:03 10° S 17:15:36 56° W 17:20:12 10° NNW
FALCON 9 DEB 3.3 17:13:09 10° WSW 17:16:03 55° NW 17:18:50 11° NE
Cosmos 2360 Rocket 2.2 17:10:42 10° SSW 17:16:19 80° ESE 17:22:01 10° NNE
Lacrosse 5 3.5 17:14:25 10° SSE 17:17:28 16° ESE 17:19:23 13° E
MOS 1-B Rocket 4.1 17:12:24 10° NNE 17:18:20 51° E 17:23:46 10° S
H-2A R/B 3.7 17:15:18 10° ESE 17:18:29 21° ENE 17:21:36 10° NNE
Cosmos 1934 Rocket 4.2 17:13:56 10° SSW 17:20:00 73° W 17:26:03 10° N
Cosmos 1140 Rocket 4.5 17:15:57 10° N 17:20:15 25° ENE 17:24:33 10° ESE
Cosmos 1408 3.2 17:20:07 10° NNE 17:23:22 32° ENE 17:26:34 10° SE
Cosmos 1602 Rocket 3.5 17:19:28 10° N 17:23:44 57° E 17:27:58 10° SSE
Cosmos 1844 3.9 17:21:03 10° NNW 17:26:39 48° ENE 17:32:08 10° SE
Okean O Rocket 1.6 17:23:48 10° SSE 17:28:01 55° ENE 17:32:18 10° N
NOSS 2-2 (D) 3.3 17:26:17 10° SSW 17:29:36 43° ESE 17:31:42 19° NE
Cosmos 1932 4.5 17:24:19 10° NNW 17:30:30 60° NE 17:36:42 10° SE
X-37B 2.4 17:28:06 10° W 17:30:38 26° SW 17:33:09 10° SSE
Cosmos 407 Rocket 4.2 17:25:51 10° N 17:30:41 33° ENE 17:35:29 10° SE
Iridium 4 Rocket 3.8 17:28:40 10° N 17:33:37 72° W 17:38:59 10° S
Cosmos 2228 3.3 17:29:53 10° SSE 17:34:04 46° E 17:38:17 10° NNE
COSMO-SKYMED 1 2.5 17:29:43 10° NNE 17:34:05 84° ESE 17:38:25 10° SSW
CZ-2C R/B 2.6 17:29:09 10° NNE 17:34:41 70° ESE 17:40:05 10° S
Cosmos 2333 Rocket 2.3 17:31:52 10° S 17:37:23 57° ESE 17:42:59 10° NNE
SJ-11-01 4.3 17:32:51 10° SSE 17:37:26 59° ENE 17:42:05 10° N
CZ-4B R/B 3.3 17:32:22 10° SSE 17:38:02 89° E 17:43:43 10° NNW
NOSS 2-2 (E) 2.8 17:34:38 10° SSW 17:38:02 82° ESE 17:40:31 17° NE
Meteor 2-10 Rocket 3.7 17:32:33 10° S 17:38:04 82° W 17:43:24 10° N
Cosmos 614 Rocket 3.9 17:33:04 10° NNW 17:38:11 89° ENE 17:43:19 10° SSE
IRAS Rocket 4.5 17:33:38 10° NNE 17:38:54 45° E 17:44:07 10° S
In-Cosmos 22 Rocket 4.0 17:33:53 10° N 17:39:11 69° E 17:44:31 10° SSE
Tiangong 1.7 17:38:10 10° W 17:41:18 51° SSW 17:43:00 23° SE
CZ-4C R/B 2.6 17:39:35 10° NNE 17:42:50 73° E 17:45:59 10° S
Cosmos 1825 Rocket 3.9 17:40:57 10° N 17:45:00 38° ENE 17:49:02 10° SSE
Cosmos 2251 Rocket 3.5 17:41:09 10° NNW 17:46:25 83° WSW 17:51:38 10° SSE
Cosmos 1892 2.5 17:44:50 10° N 17:48:36 83° E 17:52:20 10° S
DELTA 2 R/B (1) 4.4 17:46:21 10° SW 17:51:21 34° SSE 17:53:27 25° ESE
Lacrosse 4 Rocket 3.3 17:48:39 10° NW 17:52:36 34° WSW 17:56:36 10° S
Cosmos 1758 Rocket 3.4 17:49:34 10° N 17:53:56 82° E 17:58:17 10° S
CZ-4C R/B 2.3 17:50:27 10° S 17:54:43 39° ESE 17:56:17 31° ENE
OAO 3 Rocket 3.7 17:51:20 10° WSW 17:55:55 49° S 17:57:56 30° ESE
Cosmos 2322 3.6 17:50:29 10° SSW 17:56:11 74° ESE 18:01:53 10° NNE
Landsat 5 4.2 17:52:45 10° N 17:57:12 61° WNW 18:01:38 10° SSW
Okean-O 4.0 18:00:16 23° NE 18:00:16 23° NE 18:02:30 10° N
Cosmos 1953 Rocket 4.1 17:56:46 10° N 18:00:34 37° ENE 18:00:34 37° ENE
CZ-4 R/B 1.4 18:01:15 24° SE 18:03:30 57° ENE 18:07:34 10° N
USA 215 4.4 17:58:21 10° NE 18:04:15 38° NNW 18:10:10 10° W
Cosmos 1844 Rocket 3.0 17:59:49 10° NNW 18:05:21 68° WSW 18:10:51 10° S
Cosmos 1459 Rocket 3.9 18:03:31 10° S 18:09:35 60° E 18:15:34 10° NNE
Cosmos 2344 4.5 18:02:08 10° NW 18:11:52 87° WSW 18:25:37 10° SSE
Cosmos 1818 4.0 18:09:51 10° S 18:14:32 39° ESE 18:14:32 39° ESE
Cosmos 1455 2.7 18:12:08 10° SSW 18:15:52 57° W 18:19:35 10° N
Feng Yun 1-1 Rocket 4.3 18:10:47 10° SSE 18:16:22 84° WSW 18:22:11 10° NNW
Cosmos 2056 Rocket 3.3 18:12:19 10° SSW 18:17:25 79° ESE 18:20:42 22° NNE
Cosmos 292 Rocket 3.7 18:13:44 10° SSW 18:18:34 90° E 18:21:44 22° NNE
Cosmos 1190 Rocket 3.9 18:13:40 10° NNW 18:18:51 62° ENE 18:20:02 48° ESE
YAOGAN 1 2.4 18:14:49 11° SSE 18:18:59 88° E 18:23:20 10° NNW
H-2A R/B 1.8 18:20:27 71° ESE 18:20:27 71° ESE 18:24:39 10° S
Cosmos 1825 2.2 18:19:00 10° N 18:22:46 76° W 18:23:12 65° SSW
Cosmos 2100 Rocket 3.9 18:17:53 10° S 18:24:12 86° E 18:30:36 10° N
Spot 2 4.4 18:20:11 10° S 18:24:20 64° WSW 18:28:45 10° NNW
NOSS 2-2 (C) 4.3 18:22:27 10° WSW 18:25:39 36° NW 18:26:18 33° NNW
Cosmos 1606 Rocket 4.3 18:25:00 10° SSW 18:29:22 54° W 18:33:45 10° N
Cosmos 2173 Rocket 3.9 18:23:30 10° S 18:29:42 89° E 18:36:02 10° N
USA 267 3.3 18:33:17 33° SE 18:36:32 76° SW 18:43:05 10° NW
CENTAUR R/B 4.2 18:33:18 10° NNW 18:39:55 27° NE 18:40:07 27° NE
Cosmos 1802 Rocket 3.8 18:33:49 10° S 18:39:57 84° E 18:46:08 10° N
Cosmos 2278 Rocket 3.4 18:35:29 10° N 18:38:34 27° NNE 18:38:34 27° NNE
COSMOS 2428 3.0 18:36:29 10° SSW 18:42:06 66° WNW 18:45:33 24° NNE
MetOp-A 4.0 18:44:20 77° NNE 18:44:20 77° NNE 18:49:26 10° N
NOSS 0 Rocket 4.0 18:38:12 10° S 18:43:33 59° SE 18:43:33 59° SE
IRS-1C Rocket 4.1 18:43:15 47° S 18:44:48 81° WSW 18:50:06 10° NNW
H-2A R/B 4.3 18:50:02 10° SSW 18:53:45 30° W 18:57:23 10° NW
Cosmos 1864 Rocket 4.3 18:47:41 10° S 18:54:01 82° E 19:00:20 10° N
Cosmos 2219 Rocket 3.3 18:49:18 10° SW 18:54:32 40° WNW 18:58:59 14° N
Lacrosse 5 2.5 18:54:45 10° SW 18:58:38 52° WSW 18:58:38 52° WSW
Milstar 3 Cent rocket 3.9 18:58:47 10° SW 19:04:50 39° SSE 19:05:10 39° SSE
Cosmos 2237 Rocket 4.3 19:04:04 10° SSW 19:05:04 16° SSW 19:05:04 16° SSW
Cosmos 2016 Rocket 4.2 19:05:50 10° SSW 19:11:58 65° W 19:18:05 10° N
Cosmos 2333 Rocket 4.4 19:17:46 10° WSW 19:22:04 22° NW 19:26:24 10° N
CZ-4C R/B 4.1 19:39:03 10° WSW 19:41:33 23° WNW 19:41:33 23° WNW
CENTAUR R/B 4.4 20:23:24 10° NNW 20:27:18 33° NNW 20:27:18 33° NNW
